CW2927 Weather Reports


time (UTC)temp
C
wind
direction
speed
KPH
gust
KPH
rain 1hr
cm
rain 24hr
cm
rain mn
cm
humidity
%
barometer
mb
20260508172204 9 297 8.0 14.5 0.00 0.00 0.00 57 1007.5
20260508170704 10 196 6.4 12.9 0.00 0.00 0.00 57 1007.5
20260508170205 10 192 4.8 14.5 0.00 0.00 0.00 57 1007.5
20260508164704 10 283 4.8 11.3 0.00 0.00 0.00 55 1007.5
20260508164204 10 288 6.4 14.5 0.00 0.00 0.00 56 1007.5
20260508162704 9 261 8.0 14.5 0.00 0.00 0.00 58 1007.6
20260508162206 9 246 8.0 20.9 0.00 0.00 0.00 59 1007.6
20260508160705 9 258 6.4 14.5 0.00 0.00 0.00 59 1007.7
20260508160204 9 271 6.4 14.5 0.00 0.00 0.00 59 1007.7
20260508154704 9 304 6.4 12.9 0.00 0.00 0.00 60 1007.8
20260508154205 9 271 8.0 12.9 0.00 0.00 0.00 59 1007.9
20260508152704 9 228 4.8 9.7 0.00 0.00 0.00 63 1007.8
20260508152204 8 276 6.4 12.9 0.00 0.00 0.00 61 1007.9
20260508150705 8 263 4.8 14.5 0.00 0.00 0.00 64 1008.0
20260508150204 8 311 4.8 12.9 0.00 0.00 0.00 65 1008.0
20260508144704 8 268 8.0 11.3 0.00 0.00 0.00 64 1008.0
20260508144204 8 304 6.4 14.5 0.00 0.00 0.00 66 1008.1
20260508142704 7 251 4.8 9.7 0.00 0.00 0.00 65 1008.1
20260508142204 7 275 3.2 8.0 0.00 0.00 0.00 67 1008.0
20260508140706 7 295 4.8 8.0 0.00 0.00 0.00 69 1008.1
20260508140204 7 261 4.8 9.7 0.00 0.00 0.00 69 1008.0
20260508134704 7 295 3.2 9.7 0.00 0.00 0.00 69 1008.0
20260508134204 7 272 4.8 12.9 0.00 0.00 0.00 70 1008.1
20260508132704 7 278 4.8 8.0 0.00 0.00 0.00 70 1008.1
20260508132204 7 269 4.8 8.0 0.00 0.00 0.00 71 1008.1
20260508130704 7 276 4.8 4.8 0.00 0.00 0.00 73 1008.0
20260508130205 6 266 3.2 8.0 0.00 0.00 0.00 74 1008.0
20260508124704 6 250 3.2 4.8 0.00 0.00 0.00 75 1008.0
20260508124204 6 279 3.2 4.8 0.00 0.00 0.00 75 1008.0
20260508122704 6 282 4.8 4.8 0.00 0.00 0.00 75 1008.0
20260508122204 6 261 3.2 8.0 0.00 0.00 0.00 75 1007.9
20260508120204 5 276 3.2 4.8 0.00 0.00 0.00 77 1007.9
20260508114704 5 271 3.2 4.8 0.00 0.00 0.00 78 1007.8
20260508114204 5 261 4.8 8.0 0.00 0.00 0.00 80 1007.8
20260508112704 5 279 1.6 4.8 0.00 0.00 0.00 83 1007.6
20260508112204 5 279 0.0 3.2 0.00 0.00 0.00 84 1007.6
20260508110704 4 279 1.6 4.8 0.00 0.00 0.00 84 1007.6
20260508110204 4 279 0.0 1.6 0.00 0.00 0.00 84 1007.5
20260508104704 4 279 1.6 4.8 0.00 0.00 0.00 85 1007.4
20260508104204 4 279 1.6 8.0 0.00 0.00 0.00 85 1007.3
20260508102704 3 283 1.6 4.8 0.00 0.00 0.00 85 1007.2
20260508102204 3 283 3.2 4.8 0.00 0.00 0.00 86 1007.2
20260508100704 3 283 0.0 3.2 0.00 0.00 0.00 86 1007.1
20260508100204 3 283 1.6 4.8 0.00 0.00 0.00 87 1007.0
20260508094704 3 283 1.6 3.2 0.00 0.00 0.00 87 1006.9
20260508094204 3 283 1.6 3.2 0.00 0.00 0.00 87 1006.9
20260508092204 3 283 0.0 3.2 0.00 0.00 0.00 88 1006.7
20260508090703 3 283 0.0 1.6 0.00 0.00 0.00 88 1006.7
20260508090204 3 283 0.0 1.6 0.00 0.00 0.00 88 1006.8
20260508084704 3 283 0.0 1.6 0.00 0.00 0.00 88 1006.7
20260508084204 3 283 1.6 3.2 0.00 0.00 0.00 88 1006.8
20260508082704 3 283 0.0 3.2 0.00 0.00 0.00 89 1006.8
20260508082204 3 283 0.0 1.6 0.00 0.00 0.00 89 1006.7
20260508080704 3 283 0.0 0.0 0.00 0.00 0.00 89 1006.7
20260508080203 3 283 0.0 3.2 0.00 0.00 0.00 89 1006.7
20260508074706 3 283 0.0 0.0 0.00 0.00 0.00 89 1006.6
20260508074205 3 283 0.0 3.2 0.00 0.00 0.00 89 1006.6
20260508072706 3 283 0.0 0.0 0.00 0.00 0.00 90 1006.7
20260508072205 2 283 0.0 3.2 0.00 0.00 0.00 89 1006.7
20260508070705 2 283 1.6 4.8 0.00 0.00 0.00 90 1006.7
20260508070205 2 283 0.0 3.2 0.00 0.00 0.00 90 1006.7
20260508064706 2 283 1.6 3.2 0.00 0.00 0.00 89 1006.6
20260508064205 2 283 0.0 3.2 0.00 0.00 0.00 89 1006.7
20260508062705 2 283 0.0 1.6 0.00 0.00 0.00 89 1006.7
20260508062206 2 283 0.0 1.6 0.00 0.00 0.00 89 1006.7
20260508060705 2 283 0.0 0.0 0.00 0.00 0.00 89 1006.8
20260508060205 2 283 0.0 3.2 0.00 0.00 0.00 89 1006.8
20260508054705 2 283 1.6 3.2 0.00 0.00 0.00 89 1006.9
20260508054205 2 283 1.6 3.2 0.00 0.00 0.00 89 1007.0
20260508052705 2 283 0.0 0.0 0.00 0.00 0.00 89 1007.0
20260508052205 2 283 0.0 1.6 0.00 0.00 0.00 89 1006.9
20260508050705 2 283 0.0 0.0 0.00 0.00 0.00 88 1006.9
20260508050205 2 283 0.0 1.6 0.00 0.00 0.00 88 1007.0
20260508044705 2 283 1.6 1.6 0.00 0.00 0.00 88 1007.1
20260508044205 2 283 1.6 4.8 0.00 0.00 0.00 88 1007.2
20260508042704 2 283 1.6 3.2 0.00 0.00 0.00 87 1007.1
20260508042205 2 283 1.6 3.2 0.00 0.00 0.00 87 1007.0
20260508040705 2 283 0.0 0.0 0.00 0.00 0.00 85 1007.0
20260508040205 2 283 0.0 0.0 0.00 0.00 0.00 85 1007.0
20260508034705 3 283 0.0 0.0 0.00 0.00 0.00 84 1006.9
20260508034205 3 283 0.0 3.2 0.00 0.00 0.00 84 1007.0
20260508032704 3 283 0.0 0.0 0.00 0.00 0.00 83 1007.0
20260508032205 3 283 1.6 3.2 0.00 0.00 0.00 82 1007.0
20260508030705 4 283 0.0 1.6 0.00 0.00 0.00 81 1007.1
20260508030205 5 283 0.0 1.6 0.00 0.00 0.00 80 1007.1
20260508024705 5 283 1.6 3.2 0.00 0.00 0.00 78 1007.1
20260508024205 5 283 1.6 4.8 0.00 0.00 0.00 78 1007.1
20260508022704 6 283 1.6 4.8 0.00 0.00 0.00 77 1007.2
20260508022204 6 283 3.2 4.8 0.00 0.00 0.00 76 1007.2
20260508020705 6 288 3.2 4.8 0.00 0.00 0.00 74 1007.0
20260508020205 6 296 4.8 8.0 0.00 0.00 0.00 73 1007.0
20260508014704 7 292 4.8 4.8 0.00 0.00 0.00 71 1007.0
20260508014205 7 291 3.2 4.8 0.00 0.00 0.00 71 1006.9
20260508012705 7 287 4.8 11.3 0.00 0.00 0.00 70 1007.0
20260508012205 7 296 3.2 9.7 0.00 0.00 0.00 70 1006.9
20260508010705 7 276 4.8 9.7 0.00 0.00 0.00 69 1006.9
20260508010205 7 276 4.8 9.7 0.00 0.00 0.00 69 1006.9
20260508004704 7 271 4.8 4.8 0.00 0.00 0.00 68 1006.6
20260508004205 7 294 6.4 12.9 0.00 0.00 0.00 68 1006.5
20260508002705 7 281 6.4 12.9 0.00 0.00 0.00 66 1006.4
20260508002205 7 312 4.8 12.9 0.00 0.00 0.00 66 1006.3
20260508000705 7 282 8.0 11.3 0.00 0.00 0.00 66 1006.3
20260508000205 7 284 4.8 20.9 0.00 0.00 0.00 67 1006.3
20260507234705 8 315 8.0 12.9 0.00 0.00 0.00 65 1006.1
20260507234205 8 294 8.0 14.5 0.00 0.00 0.00 65 1006.0
20260507232705 8 301 11.3 25.7 0.00 0.00 0.00 63 1005.9
20260507232205 8 281 6.4 25.7 0.00 0.00 0.00 63 1005.9
20260507230705 8 275 4.8 20.9 0.00 0.00 0.00 63 1005.8
20260507230205 8 273 8.0 25.7 0.00 0.00 0.00 64 1005.9
20260507224705 9 302 14.5 22.5 0.00 0.00 0.00 63 1005.8
20260507224205 9 291 11.3 29.0 0.00 0.00 0.00 60 1005.8
20260507222705 10 311 14.5 33.8 0.00 0.00 0.00 57 1005.7
20260507222205 10 275 11.3 25.7 0.00 0.00 0.00 61 1005.6
20260507220705 10 294 16.1 25.7 0.00 0.00 0.00 59 1005.5
20260507220205 10 287 12.9 27.4 0.00 0.00 0.00 59 1005.5
20260507214704 10 276 17.7 25.7 0.00 0.00 0.00 59 1005.4
20260507214204 10 281 11.3 25.7 0.00 0.00 0.00 59 1005.4
20260507212705 10 298 14.5 29.0 0.00 0.00 0.00 59 1005.4
20260507212205 10 318 16.1 29.0 0.00 0.00 0.00 56 1005.2
20260507210705 10 265 16.1 24.1 0.00 0.00 0.00 55 1005.0
20260507210205 10 281 8.0 25.7 0.00 0.00 0.00 58 1005.0
20260507204704 10 277 11.3 32.2 0.00 0.00 0.00 54 1005.1
20260507204204 10 292 20.9 32.2 0.00 0.00 0.00 52 1005.0
20260507202704 10 302 19.3 27.4 0.00 0.00 0.00 52 1004.8
20260507202204 10 274 9.7 32.2 0.00 0.00 0.00 52 1004.8
20260507200704 11 261 9.7 29.0 0.00 0.00 0.00 49 1004.7
20260507200204 11 293 14.5 29.0 0.00 0.00 0.00 49 1004.6
20260507194705 11 246 9.7 25.7 0.00 0.00 0.00 51 1004.5
20260507194204 11 229 11.3 27.4 0.00 0.00 0.00 51 1004.5
20260507192705 10 231 9.7 27.4 0.00 0.00 0.00 54 1004.5
20260507192205 10 296 11.3 27.4 0.00 0.00 0.00 53 1004.5
20260507190705 10 260 11.3 25.7 0.00 0.00 0.00 52 1004.5
20260507184704 10 266 6.4 24.1 0.00 0.00 0.00 55 1004.6
20260507184204 10 284 14.5 27.4 0.00 0.00 0.00 53 1004.6
20260507182705 10 302 9.7 27.4 0.00 0.00 0.00 55 1004.4
20260507182205 10 250 11.3 27.4 0.00 0.00 0.00 57 1004.5
20260507180704 10 301 8.0 25.7 0.00 0.03 0.00 58 1004.5
20260507180204 10 271 11.3 32.2 0.00 0.03 0.00 56 1004.5
20260507174705 11 232 11.3 25.7 0.00 0.03 0.00 58 1004.4
20260507174204 10 239 8.0 27.4 0.00 0.03 0.00 58 1004.4
20260507172705 11 234 8.0 24.1 0.00 0.03 0.00 58 1004.5